This is the latest recevied weather packets stored in our database for station/object KA9CBS. If no packets are shown the sender has not sent any weather packets the latest 10 day(s).
| Time | Temp. | Humidity | Pressure | Rain* | Wind** | Luminosity | Snow |
|---|---|---|---|---|---|---|---|
| 1787923205 | 21.11° C | 90% | 1021.9 hPa | 0 mm | - | 149 W/m² | - |
| 1787922901 | 20.56° C | 91% | 1022.1 hPa | 0 mm | - | 131 W/m² | - |
| 1787922600 | 20.56° C | 90% | 1022 hPa | 0 mm | - | 115 W/m² | - |
| 1787922299 | 20.56° C | 92% | 1022 hPa | 0 mm | - | 70 W/m² | - |
| 1787921995 | 20.56° C | 91% | 1021.9 hPa | 0 mm | - | 65 W/m² | - |
| 1787921691 | 20° C | 92% | 1022 hPa | 0 mm | - | 61 W/m² | - |
| 1787921390 | 20° C | 93% | 1022 hPa | 0 mm | - | 58 W/m² | - |
| 1787921086 | 20° C | 94% | 1021.7 hPa | 0 mm | - | 54 W/m² | - |
| 1787920781 | 19.44° C | 95% | 1022.1 hPa | 0 mm | - | 50 W/m² | - |
| 1787920481 | 18.89° C | 96% | 1021.9 hPa | 0 mm | - | 40 W/m² | - |
| 1787920178 | 18.89° C | 96% | 1021.7 hPa | 0 mm | - | 38 W/m² | - |
| 1787919872 | 18.89° C | 97% | 1021.9 hPa | 0 mm | - | 35 W/m² | - |
| 1787919571 | 18.33° C | 97% | 1021.7 hPa | 0 mm | - | 32 W/m² | - |
| 1787919267 | 18.33° C | 97% | 1021.7 hPa | 0 mm | - | 28 W/m² | - |
| 1787918962 | 18.33° C | 97% | 1021.5 hPa | 0 mm | - | 25 W/m² | - |
| 1787918657 | 17.78° C | 97% | 1021.4 hPa | 0 mm | - | 21 W/m² | - |
| 1787918355 | 17.78° C | 97% | 1021.4 hPa | 0 mm | - | 18 W/m² | - |
| 1787918050 | 17.78° C | 98% | 1021.3 hPa | 0 mm | - | 15 W/m² | - |
| 1787917745 | 17.22° C | 98% | 1021.2 hPa | 0 mm | - | 12 W/m² | - |
| 1787917441 | 17.78° C | 97% | 1021.1 hPa | 0 mm | - | 10 W/m² | - |
| 1787917136 | 17.78° C | 97% | 1021.1 hPa | 0 mm | - | 7 W/m² | - |
| 1787916831 | 17.22° C | 97% | 1020.6 hPa | 0 mm | - | 5 W/m² | - |
| 1787916530 | 17.22° C | 96% | 1020.8 hPa | 0 mm | - | 3 W/m² | - |
| 1787916226 | 17.78° C | 96% | 1020.9 hPa | 0 mm | - | 1 W/m² | - |
| 1787915921 | 17.22° C | 96% | 1020.8 hPa | 0 mm | - | 0 W/m² | - |
* Rain latest hour (hover to see other rain measurements)
** Current wind speed in m/s (hover to see current wind gust speed)